This demonstration page uses our WeatherBlox Daily Observations layout. Learn more.

Left ArrowRight Arrow

Hourly Observations for November 4, 2020

Temp ( °F °C ) Dew Point ( °F °C ) Humidity (%) Winds ( mph kmh ) Pressure ( in mb ) Visibility ( mi km ) Precip ( " mm )
12:54 am 00:54 Clear 53 11.7 38 3.3 57 57 S 6 9 29.94 1014 10 16.0934 0 0
1:54 am 01:54 Clear 49 9.4 38 3.3 66 66 S 7 11 29.94 1014 10 16.0934 0 0
2:54 am 02:54 Clear 45 7.2 37 2.8 74 74 S 7 11 29.94 1014 10 16.0934 0 0
3:54 am 03:54 Clear 47 8.3 39 3.9 74 74 S 5 7 29.93 1013 10 16.0934 0 0
4:54 am 04:54 Clear 47 8.3 39 3.9 74 74 SSW 5 7 29.93 1014 10 16.0934 0 0
5:54 am 05:54 Clear 43 6.1 37 2.8 80 80 SW 3 6 29.95 1014 10 16.0934 0 0
6:54 am 06:54 Clear 39 3.9 34 1.1 82 82 SSW 3 6 29.97 1015 10 16.0934 0 0
7:54 am 07:54 Sunny 42 5.6 37 2.8 82 82 S 6 9 29.99 1016 10 16.0934 0 0
8:54 am 08:54 Sunny 50 10 42 5.6 74 74 S 7 11 30 1016 10 16.0934 0 0
9:54 am 09:54 Sunny 57 13.9 42 5.6 58 58 SSW 10 17 30 1016 10 16.0934 0 0
10:54 am 10:54 Sunny 63 17.2 43 6.1 48 48 SSW 10 17 29.97 1015 10 16.0934 0 0
11:54 am 11:54 Sunny 70 21.1 43 6.1 38 38 SSW 9 15 29.96 1015 10 16.0934 0 0
12:54 pm 12:54 Sunny 74 23.3 43 6.1 33 33 SSW 8 13 29.95 1014 10 16.0934 0 0
1:54 pm 13:54 Sunny 76 24.4 45 7.2 33 33 S 9 15 29.94 1014 10 16.0934 0 0
2:54 pm 14:54 Sunny 78 25.6 44 6.7 30 30 SSW 12 19 29.93 1014 10 16.0934 0 0
3:54 pm 15:54 Sunny 75 23.9 44 6.7 33 33 S 13 20 29.95 1014 10 16.0934 0 0
4:54 pm 16:54 Sunny 68 20 44 6.7 42 42 S 8 13 29.96 1015 10 16.0934 0 0
5:54 pm 17:54 Clear 61 16.1 42 5.6 50 50 S 10 17 29.99 1016 10 16.0934 0 0
6:54 pm 18:54 Clear 62 16.7 42 5.6 48 48 S 6 9 30.02 1017 10 16.0934 0 0
7:54 pm 19:54 Clear 57 13.9 42 5.6 58 58 SSE 8 13 30.02 1017 10 16.0934 0 0
8:54 pm 20:54 Clear 56 13.3 42 5.6 60 60 S 5 7 30.03 1017 10 16.0934 0 0
9:54 pm 21:54 Clear 56 13.3 42 5.6 60 60 SSE 5 7 30.05 1018 10 16.0934 0 0
10:54 pm 22:54 Clear 56 13.3 43 6.1 62 62 SSE 3 6 30.06 1018 10 16.0934 0 0
11:54 pm 23:54 Clear 49 9.4 40 4.4 71 71 Calm 30.06 1018 10 16.0934 0 0

Powered by AerisWeather